Location: Quedlinburg
(51.7921°N, 11.1414°E)
Time: 20:21:30
(UTC+02:00)

RS-15 - Pass Details

Date: 19 March 2026
Orbit: 1893 x 2152 km, 64.8° (Epoch: 17 April)

Event Time Altitude Azimuth Distance (km) Brightness Sun altitude
Rises 03:46:06 0° 316° (NW) 5,379 10.2 -23.6°
Reaches altitude 10° 03:49:20 10° 317° (NW) 4,406 9.8 -23.1°
Maximum altitude 04:00:49 89° 231° (SW) 2,050 8.0 -21.6°
Drops below altitude 10° 04:12:50 10° 142° (SE) 4,598 10.1 -20.0°
Sets 04:16:17 0° 143° (SE) 5,621 10.6 -19.5°
